Location: Amsterdam
(30.7274°N, 84.4357°W)
Time: 18:20:46
(UTC+00:00)

Transit 2A Rocket - Pass Details

Date: 20 February 2026
Orbit: 583 x 900 km, 66.7° (Epoch: 12 March)

Event Time Altitude Azimuth Distance (km) Brightness Sun altitude
Rises 18:44:52 0° 148° (SSE) 3,427 8.7 46.6°
Reaches altitude 10° 18:50:24 10° 106° (ESE) 2,550 7.8 46.2°
Maximum altitude 18:50:53 10° 101° (E) 2,547 7.7 46.2°
Drops below altitude 10° 18:51:21 10° 97° (E) 2,557 7.7 46.1°
Sets 18:56:59 0° 55° (NE) 3,517 8.1 45.7°
